FW0614 Yonaguni JP current weather conditions

sailwx.info

Wind from 171 at 1 knots gusting 3

Air temperature 30.6° C
Dewpoint 25.6° C

Last reported at 2020-May-28 07:05 UTC.
Time now 2020-May-28 07:25 UTC

Location: N 24°28' E 123°00'.
View on Google Maps.

See reports from other nearby stations

  
Tides and Currents Weather Stations Pressure Air Temp Water Temp Dewpoint Dewpoint Depression Visibility Wind Speed Wind Dir Waves Ship Positions
date/time (UTC)wind fromknots sea level pressurealtimeterstation pressurevisibilityair tempwater tempwave heightnotes
2020-May-28 07:05 171 1 gusting 3 30.6
2020-May-28 07:00 160 1 gusting 3 30.6
2020-May-28 06:55 195 1 gusting 3 30.6
2020-May-28 06:50 176 1 gusting 3 30.6
2020-May-28 06:45 137 1 gusting 3 30.6
2020-May-28 06:40 109 0 gusting 3 30.6
2020-May-28 06:35 146 1 gusting 3 30.6
2020-May-28 06:30 183 1 gusting 3 30.6
2020-May-28 06:25 162 1 gusting 3 30.6
2020-May-28 06:20 178 1 gusting 4 30.6
2020-May-28 06:15 214 0 gusting 4 31.1
2020-May-28 06:10 239 2 gusting 3 31.1
2020-May-28 06:05 222 2 gusting 3 31.7
2020-May-28 06:00 186 1 gusting 2 32.2
2020-May-28 05:55 204 1 gusting 2 32.2
2020-May-28 05:50 227 1 gusting 5 32.8
2020-May-28 05:45 320 1 gusting 5 33.3
2020-May-28 05:40 295 1 gusting 5 33.9
2020-May-28 05:35 173 2 gusting 4 34.4
2020-May-28 05:30 088 1 gusting 4 35.0
2020-May-28 05:25 190 2 gusting 4 35.6
2020-May-28 05:20 170 2 gusting 4 35.0
2020-May-28 05:15 293 2 gusting 7 34.4
2020-May-28 05:10 114 1 gusting 7 34.4
2020-May-28 05:05 139 2 gusting 6 34.4
2020-May-28 05:00 142 4 gusting 6 33.9
2020-May-28 04:55 303 1 gusting 3 32.2
2020-May-28 04:50 257 1 gusting 3 31.7
2020-May-28 04:45 333 1 gusting 3 31.7
2020-May-28 04:40 082 2 gusting 3 31.7
2020-May-28 04:35 086 1 gusting 3 31.1
2020-May-28 04:30 358 0 gusting 3 30.6
2020-May-28 04:25 008 1 gusting 5 30.6
2020-May-28 04:20 030 1 gusting 5 30.6
2020-May-28 04:15 042 1 gusting 5 30.6
2020-May-28 04:10 026 2 gusting 6 30.6
2020-May-28 04:05 024 1 gusting 6 30.6
2020-May-28 04:00 030 2 gusting 6 30.6
2020-May-28 03:55 030 3 gusting 6 31.1
2020-May-28 03:50 024 1 gusting 7 31.7
2020-May-28 03:45 032 0 gusting 7 31.7
2020-May-28 03:40 041 4 gusting 7 31.1
2020-May-28 03:35 038 3 gusting 8 32.2
2020-May-28 03:30 029 1 gusting 8 33.3
2020-May-28 03:25 026 6 gusting 8 33.9
2020-May-28 03:20 020 1 gusting 6 33.3
2020-May-28 03:15 313 6 gusting 6 33.3
2020-May-28 03:10 325 2 gusting 6 33.9
2020-May-28 03:05 063 1 gusting 6 33.3
2020-May-28 03:00 044 3 gusting 6 33.3
2020-May-28 02:55 325 1 gusting 5 33.9
2020-May-28 02:50 022 3 gusting 8 33.9
2020-May-28 02:45 042 1 gusting 8 33.3
2020-May-28 02:40 302 1 gusting 4 33.9
2020-May-28 02:35 006 1 gusting 6 33.9
2020-May-28 02:30 034 1 gusting 6 33.3
2020-May-28 02:25 026 1 gusting 5 32.8
2020-May-28 02:20 017 3 gusting 6 31.7
2020-May-28 02:15 023 5 gusting 6 31.7
2020-May-28 02:10 032 1 gusting 6 32.2
2020-May-28 02:05 022 5 gusting 6 31.7
2020-May-28 02:00 018 5 gusting 6 30.6
2020-May-28 01:55 017 4 gusting 6 30.6
2020-May-28 01:50 026 3 gusting 6 30.6
2020-May-28 01:45 030 2 gusting 6 30.0
2020-May-28 01:40 035 3 gusting 6 30.0
2020-May-28 01:35 030 5 gusting 6 30.0
2020-May-28 01:30 021 1 gusting 7 30.6
2020-May-28 01:25 027 4 gusting 7 30.0
2020-May-28 01:20 030 2 gusting 6 30.6
2020-May-28 01:15 048 3 gusting 5 30.6
2020-May-28 01:10 036 0 gusting 3 31.1
2020-May-28 01:05 013 0 gusting 3 30.6
2020-May-28 01:00 029 0 gusting 5 29.4
2020-May-28 00:55 048 4 gusting 5 29.4
2020-May-28 00:50 058 1 gusting 3 30.0
2020-May-28 00:45 016 0 gusting 3 30.0
2020-May-28 00:40 021 0 gusting 3 29.4
2020-May-28 00:35 357 1 gusting 3 29.4
2020-May-28 00:30 313 1 gusting 3 29.4
2020-May-28 00:25 147 0 gusting 3 29.4
2020-May-28 00:20 093 0 gusting 3 29.4
2020-May-28 00:15 354 1 gusting 2 30.0
2020-May-28 00:10 006 1 gusting 2 29.4
2020-May-28 00:05 005 29.4
2020-May-28 00:00 115 0 gusting 2 28.9
2020-May-27 23:55 065 1 gusting 4 28.3
2020-May-27 23:50 039 0 gusting 4 28.3
2020-May-27 23:45 026 0 gusting 3 28.9
2020-May-27 23:40 046 0 gusting 3 28.9
2020-May-27 23:35 049 1 gusting 3 28.9
2020-May-27 23:30 035 2 gusting 5 28.9
2020-May-27 23:25 030 3 gusting 5 28.9
2020-May-27 23:20 026 28.9
2020-May-27 23:15 025 28.3
2020-May-27 23:10 022 1 gusting 2 28.3
2020-May-27 23:05 022 0 gusting 2 27.8
2020-May-27 23:00 023 1 gusting 3 27.8
2020-May-27 22:55 023 2 gusting 3 27.8
2020-May-27 22:50 022 0 gusting 2 27.8
2020-May-27 22:45 023 27.2
2020-May-27 22:40 022 27.2
2020-May-27 22:35 023 26.7
2020-May-27 22:30 023 1 gusting 2 26.7
2020-May-27 22:25 022 0 gusting 3 26.1
2020-May-27 22:20 023 26.1
2020-May-27 22:15 023 0 gusting 2 26.1
2020-May-27 22:10 023 1 gusting 3 26.1
2020-May-27 22:05 022 1 gusting 3 26.1
2020-May-27 22:00 022 1 gusting 3 26.1
2020-May-27 21:55 022 1 gusting 3 25.6
2020-May-27 21:50 022 1 gusting 3 25.6
2020-May-27 21:45 022 1 gusting 3 25.6
2020-May-27 21:40 022 2 gusting 3 25.6
2020-May-27 21:35 023 1 gusting 3 25.6
2020-May-27 21:30 023 1 gusting 2 25.6
2020-May-27 21:25 023 0 gusting 2 25.6
2020-May-27 21:20 022 1 gusting 3 25.6
2020-May-27 21:15 023 1 gusting 3 25.6
2020-May-27 21:10 022 25.6
2020-May-27 21:05 022 25.6
2020-May-27 21:00 022 1 gusting 2 25.6
2020-May-27 20:55 022 0 gusting 1 25.6
2020-May-27 20:50 023 25.6
2020-May-27 20:45 022 25.6
2020-May-27 20:40 023 1 gusting 4 25.6
2020-May-27 20:35 023 1 gusting 4 25.6
2020-May-27 20:30 023 2 gusting 3 25.6
2020-May-27 20:25 016 1 gusting 3 25.0
2020-May-27 20:20 012 1 gusting 3 25.0
2020-May-27 20:15 020 1 gusting 2 25.0
2020-May-27 20:10 023 0 gusting 2 25.0
2020-May-27 20:05 022 25.0
2020-May-27 20:00 023 25.0
2020-May-27 19:55 022 0 gusting 2 25.0
2020-May-27 19:50 023 1 gusting 2 25.0
2020-May-27 19:45 023 24.4
2020-May-27 19:40 24.4
2020-May-27 19:35 24.4
2020-May-27 19:30 24.4
2020-May-27 19:25 24.4
2020-May-27 19:20 24.4
2020-May-27 19:15 24.4
2020-May-27 19:10 24.4
2020-May-27 19:05 24.4
2020-May-27 19:00 24.4
2020-May-27 18:55 24.4
2020-May-27 18:50 24.4
2020-May-27 18:45 023 24.4
2020-May-27 18:40 023 24.4
2020-May-27 18:35 24.4
2020-May-27 18:30 022 25.0
2020-May-27 18:25 022 25.0
2020-May-27 18:20 022 25.0
2020-May-27 18:15 022 25.0
2020-May-27 18:10 25.0
2020-May-27 18:05 25.0
2020-May-27 18:00 25.0
2020-May-27 17:55 25.0
2020-May-27 17:50 25.0
2020-May-27 17:45 25.0
2020-May-27 17:40 25.0
2020-May-27 17:35 25.0
2020-May-27 17:30 25.0
2020-May-27 17:25 25.0
2020-May-27 17:20 25.0
2020-May-27 17:15 25.0
2020-May-27 17:10 25.0
2020-May-27 17:05 25.0
2020-May-27 17:00 25.0
2020-May-27 16:55 25.0
2020-May-27 16:50 25.0
2020-May-27 16:45 25.0
2020-May-27 16:40 25.0
2020-May-27 16:35 25.6
2020-May-27 16:30 25.6
2020-May-27 16:25 023 25.6
2020-May-27 16:20 022 25.0
2020-May-27 16:15 022 0 gusting 1 25.0
2020-May-27 16:10 25.0
2020-May-27 16:05 25.0
2020-May-27 16:00 022 25.0
2020-May-27 15:55 022 25.0
2020-May-27 15:50 022 25.0
2020-May-27 15:45 022 25.0
2020-May-27 15:40 25.0
2020-May-27 15:35 023 25.0
2020-May-27 15:30 023 25.0
2020-May-27 15:25 022 25.0
2020-May-27 15:20 25.0
2020-May-27 15:15 25.6
2020-May-27 15:10 022 25.6
2020-May-27 15:05 022 25.6
2020-May-27 15:00 023 25.6
2020-May-27 14:55 023 0 gusting 2 25.6
2020-May-27 14:50 023 25.6
2020-May-27 14:45 023 25.6
2020-May-27 14:40 043 25.6
2020-May-27 14:35 068 0 gusting 2 25.6
2020-May-27 14:30 068 1 gusting 2 25.6
2020-May-27 14:25 068 25.6
2020-May-27 14:20 068 25.6
2020-May-27 14:15 068 25.6
2020-May-27 14:10 25.6
2020-May-27 14:05 25.6
2020-May-27 14:00 068 25.6
2020-May-27 13:55 068 25.6
2020-May-27 13:50 068 25.6
2020-May-27 13:45 068 25.6
2020-May-27 13:40 068 25.6
2020-May-27 13:35 034 25.6
2020-May-27 13:30 022 25.6
2020-May-27 13:25 043 1 gusting 3 25.6
2020-May-27 13:20 050 2 gusting 3 25.6
2020-May-27 13:15 023 0 gusting 3 25.6
2020-May-27 13:10 031 25.6
2020-May-27 13:05 027 0 gusting 3 25.6
2020-May-27 13:00 022 1 gusting 4 25.6
2020-May-27 12:55 022 1 gusting 4 25.6
2020-May-27 12:50 022 25.6
2020-May-27 12:45 020 25.6
2020-May-27 12:40 019 0 gusting 3 25.6
2020-May-27 12:35 022 0 gusting 4 25.6
2020-May-27 12:30 022 1 gusting 4 25.6
2020-May-27 12:25 026 1 gusting 4 25.6
2020-May-27 12:20 029 2 gusting 4 25.6
2020-May-27 12:15 027 0 gusting 4 25.6
2020-May-27 12:10 026 1 gusting 4 25.6
2020-May-27 12:05 026 2 gusting 3 25.6
2020-May-27 12:00 019 1 gusting 4 25.6
2020-May-27 11:55 024 2 gusting 4 25.6
2020-May-27 11:50 020 1 gusting 5 25.6
2020-May-27 11:45 015 2 gusting 6 25.6
2020-May-27 11:40 022 3 gusting 6 25.6
2020-May-27 11:35 030 1 gusting 3 25.6
2020-May-27 11:30 022 1 gusting 5 25.6
2020-May-27 11:25 023 4 gusting 5 25.6
2020-May-27 11:20 025 3 gusting 5 25.6
2020-May-27 11:15 029 4 gusting 5 25.6
2020-May-27 11:10 024 1 gusting 6 25.6
2020-May-27 11:05 024 0 gusting 7 25.6
2020-May-27 11:00 023 3 gusting 7 25.6
2020-May-27 10:55 028 4 gusting 6 25.6
2020-May-27 10:50 024 1 gusting 6 25.6
2020-May-27 10:45 014 2 gusting 6 25.6
2020-May-27 10:40 024 2 gusting 5 25.6
2020-May-27 10:35 032 2 gusting 6 25.6
2020-May-27 10:30 029 1 gusting 6 25.6
2020-May-27 10:25 029 1 gusting 6 25.6
2020-May-27 10:20 025 4 gusting 8 25.6
2020-May-27 10:15 020 2 gusting 8 25.6
2020-May-27 10:10 024 4 gusting 6 25.6
2020-May-27 10:05 029 1 gusting 5 25.6
2020-May-27 10:00 026 1 gusting 6 25.6
2020-May-27 09:55 023 4 gusting 6 25.6
2020-May-27 09:50 028 3 gusting 6 25.6
2020-May-27 09:45 031 4 gusting 6 25.6
2020-May-27 09:40 030 3 gusting 6 25.6
2020-May-27 09:35 027 2 gusting 5 25.6
2020-May-27 09:30 027 3 gusting 6 25.6
2020-May-27 09:25 026 3 gusting 8 25.6
2020-May-27 09:20 023 5 gusting 8 25.6
2020-May-27 09:15 019 3 gusting 7 25.6
2020-May-27 09:10 017 6 gusting 8 25.6
2020-May-27 09:05 015 4 gusting 8 25.6
2020-May-27 09:00 016 5 gusting 8 25.6
2020-May-27 08:55 017 3 gusting 7 25.6
2020-May-27 08:50 020 4 gusting 8 25.6
2020-May-27 08:45 019 6 gusting 8 25.6
2020-May-27 08:40 022 4 gusting 8 25.6
2020-May-27 08:35 020 5 gusting 7 25.6
2020-May-27 08:30 017 4 gusting 6 25.6
2020-May-27 08:25 022 2 gusting 6 25.6
2020-May-27 08:20 015 4 gusting 6 25.6
2020-May-27 08:15 013 6 gusting 6 25.6
2020-May-27 08:10 018 4 gusting 7 25.6
2020-May-27 08:05 023 3 gusting 7 25.6
2020-May-27 08:00 028 5 gusting 6 25.6
2020-May-27 07:55 029 3 gusting 6 25.6
2020-May-27 07:50 029 3 gusting 6 25.6
2020-May-27 07:45 024 2 gusting 6 25.6
2020-May-27 07:40 023 5 gusting 6 25.6
2020-May-27 07:35 026 3 gusting 6 25.0
2020-May-27 07:30 024 5 gusting 6 25.6
2020-May-27 07:25 019 4 gusting 6 25.6
2020-May-27 07:20 017 3 gusting 6 25.6
2020-May-27 07:15 017 2 gusting 6 25.6
2020-May-27 07:10 012 4 gusting 6 25.6
2020-May-27 07:05 006 3 gusting 7 25.6
2020-May-27 07:00 006 6 gusting 7 25.6
2020-May-27 06:55 016 5 gusting 7 25.6
2020-May-27 06:50 024 1 gusting 6 25.6
2020-May-27 06:45 024 3 gusting 6 25.6
2020-May-27 06:40 023 2 gusting 9 25.6
2020-May-27 06:35 021 6 gusting 9 25.6
2020-May-27 06:30 019 4 gusting 7 26.1
2020-May-27 06:25 023 5 gusting 7 26.7
2020-May-27 06:20 025 4 gusting 7 26.7
2020-May-27 06:15 021 6 gusting 7 26.7
2020-May-27 06:10 025 6 gusting 7 26.7
2020-May-27 06:05 027 6 gusting 7 27.2
2020-May-27 06:00 026 3 gusting 7 27.2
2020-May-27 05:55 028 5 gusting 7 27.2
2020-May-27 05:50 025 4 gusting 7 27.2
2020-May-27 05:45 023 4 gusting 6 27.2
2020-May-27 05:40 020 4 gusting 7 27.2
2020-May-27 05:35 022 3 gusting 7 27.8
2020-May-27 05:30 025 4 gusting 7 27.8
2020-May-27 05:25 021 5 gusting 7 27.8
2020-May-27 05:20 021 6 gusting 8 28.3
2020-May-27 05:15 024 6 gusting 8 28.3
2020-May-27 05:10 021 4 gusting 7 28.9
2020-May-27 05:05 020 5 gusting 7 29.4
2020-May-27 05:00 022 4 gusting 8 30.0
2020-May-27 04:55 025 5 gusting 8 29.4
2020-May-27 04:50 027 5 gusting 8 29.4
2020-May-27 04:45 028 3 gusting 8 29.4
2020-May-27 04:40 026 3 gusting 9 28.9
2020-May-27 04:35 017 4 gusting 9 28.3
2020-May-27 04:30 019 5 gusting 8 28.3
2020-May-27 04:25 020 5 gusting 8 28.3
2020-May-27 04:20 023 5 gusting 8 28.3
2020-May-27 04:15 030 5 gusting 8 28.3
2020-May-27 04:10 026 5 gusting 8 28.3
2020-May-27 04:05 023 7 gusting 8 28.3
2020-May-27 04:00 026 4 gusting 8 28.3
2020-May-27 03:55 022 2 gusting 8 28.3
2020-May-27 03:50 023 2 gusting 8 28.3
2020-May-27 03:45 028 4 gusting 7 28.3
2020-May-27 03:40 022 5 gusting 9 28.9
2020-May-27 03:35 025 4 gusting 9 28.9
2020-May-27 03:30 031 5 gusting 9 29.4
2020-May-27 03:25 025 3 gusting 9 30.0
2020-May-27 03:20 024 6 gusting 9 30.0
2020-May-27 03:15 023 4 gusting 8 29.4
2020-May-27 03:10 025 5 gusting 8 29.4
2020-May-27 03:05 027 5 gusting 8 29.4
2020-May-27 03:00 030 5 gusting 8 29.4
2020-May-27 02:55 027 3 gusting 8 28.9
2020-May-27 02:50 019 4 gusting 8 28.3
2020-May-27 02:45 022 4 gusting 8 28.3
2020-May-27 02:40 022 4 gusting 8 28.3
2020-May-27 02:35 017 5 gusting 6 28.3
2020-May-27 02:30 026 5 gusting 7 28.3
2020-May-27 02:25 028 4 gusting 7 28.3
2020-May-27 02:20 021 2 gusting 7 28.3
2020-May-27 02:15 024 3 gusting 6 28.3
2020-May-27 02:10 025 3 gusting 6 28.3
2020-May-27 02:05 031 3 gusting 7 28.3
2020-May-27 02:00 031 2 gusting 7 28.3
2020-May-27 01:55 036 1 gusting 9 28.3
2020-May-27 01:50 031 5 gusting 9 28.3
2020-May-27 01:45 025 3 gusting 6 28.3
2020-May-27 01:40 030 4 gusting 6 27.8
2020-May-27 01:35 028 3 gusting 6 27.8
2020-May-27 01:30 026 3 gusting 10 27.8
2020-May-27 01:25 028 6 gusting 10 27.8
2020-May-27 01:20 030 5 gusting 6 27.8
2020-May-27 01:15 028 2 gusting 8 27.8
2020-May-27 01:10 019 3 gusting 9 27.8
2020-May-27 01:05 023 3 gusting 11 27.8
2020-May-27 01:00 032 3 gusting 11 27.8
2020-May-27 00:55 032 3 gusting 6 27.2
2020-May-27 00:50 030 5 gusting 7 27.2
2020-May-27 00:45 021 6 gusting 7 27.2
2020-May-27 00:40 020 5 gusting 9 27.2
2020-May-27 00:35 022 7 gusting 9 27.2
2020-May-27 00:30 023 4 gusting 11 27.2
2020-May-27 00:25 023 6 gusting 11 27.8
2020-May-27 00:20 025 6 gusting 8 27.8
2020-May-27 00:15 027 5 gusting 8 28.3
2020-May-27 00:10 031 4 gusting 7 28.3
2020-May-27 00:05 027 5 gusting 6 28.9
2020-May-27 00:00 352 3 gusting 5 29.4
2020-May-26 23:55 015 3 gusting 7 28.9
2020-May-26 23:50 029 3 gusting 7 28.3
2020-May-26 23:45 032 4 gusting 7 27.2
2020-May-26 23:40 027 2 gusting 7 27.2
2020-May-26 23:35 028 5 gusting 8 26.7
2020-May-26 23:30 032 5 gusting 8 26.7
2020-May-26 23:25 031 5 gusting 8 26.7
2020-May-26 23:20 026 3 gusting 8 26.7
2020-May-26 23:15 020 4 gusting 8 26.1
2020-May-26 23:10 019 6 gusting 9 26.1
2020-May-26 23:05 021 5 gusting 9 26.1
2020-May-26 23:00 015 5 gusting 9 26.1
2020-May-26 22:55 019 6 gusting 9 26.1
2020-May-26 22:50 026 6 gusting 7 26.1
2020-May-26 22:45 019 5 gusting 8 26.1
2020-May-26 22:40 012 4 gusting 8 26.1
2020-May-26 22:35 020 4 gusting 9 26.1
2020-May-26 22:30 022 6 gusting 9 26.1
2020-May-26 22:25 016 7 gusting 9 26.1
2020-May-26 22:20 014 5 gusting 7 26.1
2020-May-26 22:15 019 4 gusting 9 26.1
2020-May-26 22:10 024 5 gusting 9 26.1
2020-May-26 22:05 027 4 gusting 10 26.1
2020-May-26 22:00 022 7 gusting 10 26.1
2020-May-26 21:55 019 4 gusting 9 26.1
2020-May-26 21:50 016 6 gusting 9 26.1
2020-May-26 21:45 020 6 gusting 11 26.1
2020-May-26 21:40 026 7 gusting 11 26.1
2020-May-26 21:35 026 5 gusting 8 26.1
2020-May-26 21:30 028 6 gusting 8 26.1
2020-May-26 21:25 022 5 gusting 9 26.1
2020-May-26 21:20 014 5 gusting 9 26.1
2020-May-26 21:15 021 3 gusting 8 26.1
2020-May-26 21:10 019 5 gusting 8 26.1
2020-May-26 21:05 016 4 gusting 9 26.1
2020-May-26 21:00 022 6 gusting 9 26.1
2020-May-26 20:55 020 5 gusting 10 26.1
2020-May-26 20:50 017 5 gusting 10 26.1
2020-May-26 20:45 021 6 gusting 12 26.1
2020-May-26 20:40 021 7 gusting 12 26.1
2020-May-26 20:35 020 6 gusting 9 26.1
2020-May-26 20:30 020 4 gusting 9 26.1
2020-May-26 20:25 017 6 gusting 9 26.1
2020-May-26 20:20 020 5 gusting 8 26.1
2020-May-26 20:15 022 3 gusting 12 26.7
2020-May-26 20:10 021 7 gusting 12 26.1
2020-May-26 20:05 019 7 gusting 12 26.7
2020-May-26 20:00 012 8 gusting 12 26.7
2020-May-26 19:55 010 6 gusting 12 26.7
2020-May-26 19:50 013 8 gusting 12 26.7
2020-May-26 19:45 016 7 gusting 11 27.2
2020-May-26 19:40 017 0 gusting 4 27.2
2020-May-26 19:35 341 1 gusting 4 27.2
2020-May-26 19:30 335 2 gusting 4 27.2
2020-May-26 19:25 002 3 gusting 4 27.2
2020-May-26 19:20 037 2 gusting 3 27.2
2020-May-26 19:15 057 2 gusting 3 27.2
2020-May-26 19:10 158 27.2
2020-May-26 19:05 158 27.2
2020-May-26 19:00 158 0 gusting 1 27.2
2020-May-26 18:55 158 27.2
2020-May-26 18:50 158 27.2
2020-May-26 18:45 158 27.2
2020-May-26 18:40 158 27.2
2020-May-26 18:35 158 27.2
2020-May-26 18:30 158 0 gusting 1 27.2
2020-May-26 18:25 158 27.2
2020-May-26 18:20 158 0 gusting 2 27.2
2020-May-26 18:15 158 27.2
2020-May-26 18:10 158 27.2
2020-May-26 18:05 158 27.2
2020-May-26 18:00 158 27.2
2020-May-26 17:55 158 27.2
2020-May-26 17:30 158 27.8
2020-May-26 17:25 158 27.8
2020-May-26 17:20 158 27.8
2020-May-26 17:15 158 27.8
2020-May-26 17:10 158 27.8
2020-May-26 17:05 158 27.8
2020-May-26 17:00 158 0 gusting 2 27.8
2020-May-26 16:55 158 0 gusting 2 27.8
2020-May-26 16:50 158 1 gusting 2 27.8
2020-May-26 16:45 158 1 gusting 2 27.8
2020-May-26 16:40 158 1 gusting 2 27.8
2020-May-26 16:35 158 0 gusting 2 27.8
2020-May-26 16:30 158 0 gusting 1 27.8
2020-May-26 16:25 158 27.8
2020-May-26 16:20 158 27.8
2020-May-26 16:15 158 27.8
2020-May-26 16:10 156 27.8
2020-May-26 16:05 122 0 gusting 2 27.8
2020-May-26 16:00 078 27.8
2020-May-26 15:55 068 0 gusting 2 27.8
2020-May-26 15:50 068 27.8
2020-May-26 15:45 068 0 gusting 2 27.8
2020-May-26 15:40 068 0 gusting 2 27.8
2020-May-26 15:35 086 0 gusting 2 27.8
2020-May-26 15:30 108 27.8
2020-May-26 15:25 112 27.8
2020-May-26 15:20 121 0 gusting 2 27.8
2020-May-26 15:15 148 27.8
2020-May-26 15:10 158 1 gusting 2 27.8
2020-May-26 15:05 158 27.8
2020-May-26 15:00 158 27.8
2020-May-26 14:55 158 27.8
2020-May-26 14:50 166 0 gusting 3 27.8
2020-May-26 14:45 191 0 gusting 3 27.8
2020-May-26 14:40 201 0 gusting 2 27.8
2020-May-26 14:35 164 0 gusting 2 27.8
2020-May-26 14:30 162 27.8
2020-May-26 14:25 179 27.8
2020-May-26 14:20 181 27.8
2020-May-26 14:15 158 27.8
2020-May-26 14:10 152 0 gusting 2 27.8
2020-May-26 14:05 131 27.8
2020-May-26 14:00 116 1 gusting 3 27.8
2020-May-26 13:55 117 0 gusting 3 27.8
2020-May-26 13:50 135 27.8
2020-May-26 13:45 143 27.8
2020-May-26 13:40 138 27.8
2020-May-26 13:35 150 0 gusting 2 27.8
2020-May-26 13:30 158 0 gusting 2 27.8
2020-May-26 13:25 158 27.8
2020-May-26 13:20 158 1 gusting 3 27.8
2020-May-26 13:15 158 1 gusting 3 27.8
2020-May-26 13:10 158 1 gusting 3 27.8
2020-May-26 13:05 136 0 gusting 3 27.8
2020-May-26 13:00 113 0 gusting 3 27.8
2020-May-26 12:55 112 0 gusting 2 27.8
2020-May-26 12:50 130 0 gusting 2 27.8
2020-May-26 12:45 146 1 gusting 2 27.8
2020-May-26 12:40 158 28.3
2020-May-26 12:35 158 28.3
2020-May-26 12:30 158 28.3
2020-May-26 12:25 158 28.3
2020-May-26 12:20 158 28.3
2020-May-26 12:15 158 27.8
2020-May-26 12:10 158 27.8
2020-May-26 12:05 158 0 gusting 2 27.8
2020-May-26 12:00 158 28.3
2020-May-26 11:55 158 0 gusting 1 28.3
2020-May-26 11:50 158 28.3
2020-May-26 11:45 158 28.3
2020-May-26 11:40 158 28.3
2020-May-26 11:35 158 27.8
2020-May-26 11:30 158 1 gusting 2 27.8
2020-May-26 11:25 158 27.8
2020-May-26 11:20 158 1 gusting 2 27.8
2020-May-26 11:15 158 27.8
2020-May-26 11:10 158 27.8
2020-May-26 11:05 158 1 gusting 3 27.8
2020-May-26 11:00 158 1 gusting 2 28.3
2020-May-26 10:55 147 0 gusting 2 28.3
2020-May-26 10:50 111 0 gusting 2 28.3
2020-May-26 10:45 112 2 gusting 3 28.3
2020-May-26 10:40 112 2 gusting 3 28.3
2020-May-26 10:35 114 3 gusting 3 28.3
2020-May-26 10:30 119 3 gusting 3 28.3
2020-May-26 10:25 122 2 gusting 3 28.3
2020-May-26 10:20 118 0 gusting 5 28.3
2020-May-26 10:15 126 2 gusting 5 28.3
2020-May-26 10:10 131 3 gusting 5 28.3
2020-May-26 10:05 127 0 gusting 3 28.9
2020-May-26 10:00 120 1 gusting 4 28.9
2020-May-26 09:55 115 3 gusting 4 28.9
2020-May-26 09:50 121 1 gusting 5 28.9
2020-May-26 09:45 120 2 gusting 5 28.9
2020-May-26 09:40 112 2 gusting 3 29.4
2020-May-26 09:35 111 29.4
2020-May-26 09:30 108 1 gusting 2 29.4
2020-May-26 09:25 066 0 gusting 2 29.4
2020-May-26 09:20 022 0 gusting 1 30.0
2020-May-26 09:15 022 29.4
2020-May-26 09:10 022 0 gusting 2 29.4
2020-May-26 09:05 022 0 gusting 4 29.4
2020-May-26 09:00 028 2 gusting 4 29.4
2020-May-26 08:55 075 2 gusting 4 29.4
2020-May-26 08:50 135 30.0
2020-May-26 08:45 135 0 gusting 2 30.0
2020-May-26 08:40 135 0 gusting 3 30.0
2020-May-26 08:35 135 2 gusting 3 30.0
2020-May-26 08:30 143 2 gusting 3 30.6
2020-May-26 08:25 156 3 gusting 3 30.6
2020-May-26 08:20 158 1 gusting 3 30.6
2020-May-26 08:15 160 2 gusting 4 30.0
2020-May-26 08:10 163 2 gusting 4 30.6
2020-May-26 08:05 165 3 gusting 4 30.0
2020-May-26 08:00 159 2 gusting 4 30.6
2020-May-26 07:55 158 2 gusting 5 30.6
2020-May-26 07:50 166 2 gusting 5 30.6
2020-May-26 07:45 163 2 gusting 5 30.6
2020-May-26 07:40 158 2 gusting 5 30.6
2020-May-26 07:35 158 2 gusting 4 30.0
2020-May-26 07:30 161 2 gusting 6 29.4
2020-May-26 07:25 159 3 gusting 6 29.4
2020-May-26 07:20 153 2 gusting 6 29.4
2020-May-26 07:15 154 3 gusting 6 29.4
2020-May-26 07:10 156 3 gusting 5 30.0
2020-May-26 07:05 155 3 gusting 6 30.0
2020-May-26 07:00 159 4 gusting 6 30.0